Location: Newark
(48.8656°N, 2.3211°E)
Time: 20:41:00
(UTC+00:00)

Envisat - Pass Details

Date: 13 December 2019
Orbit: 764 x 766 km, 98.1° (Epoch: 28 January)

Event Time Altitude Azimuth Distance (km) Brightness Sun altitude
Rises 17:25:15 0° 159° (SSE) 3,222 6.2 -14.2°
Reaches altitude 10° 17:27:33 10° 157° (SSE) 2,300 5.4 -14.5°
Maximum altitude 17:32:36 75° 73° (ENE) 799 2.9 -15.3°
Drops below altitude 10° 17:37:42 10° 349° (N) 2,317 5.4 -16.1°
Sets 17:40:01 0° 348° (NNW) 3,247 6.2 -16.5°
